Temp
20 20 20 21 21 21 21 21 22 21 22 20 23 23 24 23 22 23 21 22 21 21 21 20 20 19 19 18 18 18 19 18 18 18 18 18 18 18 18 18 18 18 18
19 20 19 21 21 22 22 22 21 21 22 23 23 23 23 23 22 22 22 22 22 21 21 20 20 19 19 19 19 18 19 19 19 19 19 19 18 18 18 18 18 18 18
19 20 20 21 22 21 21 21 21 22 22 24 23 23 23 23 23 22 22 23 22 21 21 21 20 20 19 19 19 19 19 19 18 19 19 19 18 18 18 18 18 18 18
18 19 20 21 21 21 22 22 23 23 23 24 24 24 24 24 23 23 22 22 23 22 22 21 20 20 20 19 19 19 19 19 18 18 18 18 18 18 18 18 18 18 18
18 19 21 21 21 22 22 22 22 22 23 24 24 24 24 24 24 23 23 22 22 21 22 21 20 20 20 19 20 19 19 19 19 19 19 18 18 18 18 18 18 18 18
19 19 21 20 20 22 21 22 22 21 22 22 24 25 24 24 24 23 23 23 22 21 22 21 21 20 20 20 20 20 19 19 19 19 19 18 18 18 18 18 19 19 19
19 20 21 20 20 21 19 20 21 21 22 22 22 22 23 24 24 24 24 23 23 23 22 21 19 21 21 21 20 20 19 19 19 19 18 18 18 18 18 18 18 18 18
18 19 20 20 20 21 21 20 20 21 22 22 22 23 20 20 21 24 24 23 23 23 23 22 21 20 21 20 20 20 19 19 19 19 18 18 18 18 18 18 18 18 18
18 19 19 20 19 20 19 19 20 20 21 21 22 22 23 22 23 23 24 24 23 23 23 22 22 21 21 19 19 19 19 19 19 19 19 18 18 18 18 18 17 17 17
18 19 18 18 18 20 20 20 20 20 20 22 22 22 22 22 22 24 24 22 24 22 23 23 21 20 20 20 20 19 19 19 19 19 19 18 18 18 18 17 17 17 17
18 19 19 18 18 19 20 20 20 19 20 21 22 22 22 22 22 22 23 24 24 23 24 22 23 22 21 21 19 20 20 20 19 19 18 18 18 18 18 17 17 17 17
19 19 19 18 18 19 19 19 18 19 19 20 20 20 22 22 23 23 24 24 24 24 23 24 22 22 21 21 21 20 20 20 19 19 18 18 18 18 18 18 17 17 17
21 20 20 18 18 19 18 19 19 19 19 19 19 20 21 22 22 23 23 23 23 24 24 24 23 22 22 20 20 20 20 20 20 19 19 18 18 18 18 17 17 17 17
21 21 20 19 18 18 18 18 19 19 19 19 19 19 19 21 22 22 22 23 23 23 24 23 23 23 22 21 20 20 20 20 19 19 18 18 18 18 18 18 17 17 17
21 21 20 19 19 18 18 19 19 19 19 19 20 20 19 20 21 22 22 23 22 23 24 24 23 23 22 21 21 20 19 19 19 19 19 19 18 18 18 17 17 17 17
20 20 19 19 19 19 19 19 18 19 19 19 19 20 19 20 21 21 21 22 22 22 21 22 22 21 21 21 20 19 19 19 19 19 19 18 18 17 17 17 17 17 16
19 19 19 19 19 19 19 19 19 19 19 19 18 19 19 19 19 20 21 21 21 21 21 21 22 21 21 19 20 19 19 19 19 19 19 18 18 18 17 17 16 16 16
19 19 19 18 18 19 19 19 18 19 19 19 19 19 18 19 18 19 19 20 20 20 20 21 21 21 20 20 19 19 18 18 17 19 18 18 18 18 17 17 16 16 16
18 18 18 19 18 18 18 19 19 18 18 19 19 19 18 18 19 18 19 19 20 20 20 20 20 20 20 20 20 19 18 18 18 19 18 17 17 17 17 17 16 16 15
18 18 18 18 18 18 18 18 18 18 19 18 18 18 18 18 18 18 18 19 19 19 20 19 20 21 21 21 20 19 19 18 18 17 18 17 17 16 16 16 16 15 15
19 19 18 18 18 18 19 19 19 19 18 18 18 18 18 18 18 18 18 18 18 18 18 20 20 21 21 21 19 18 18 18 18 16 17 17 16 16 16 15 15 15 14
18 19 18 18 18 19 20 20 20 18 18 18 18 18 18 18 18 18 18 18 18 18 18 19 20 21 22 21 20 19 18 17 17 16 16 15 15 16 16 15 15 14 14
19 20 19 19 19 18 21 20 20 19 18 18 17 17 17 18 18 18 18 18 18 18 18 18 19 20 20 20 20 19 18 19 19 17 16 15 15 14 13 13 13 12 12
19 19 19 20 19 20 20 20 20 19 19 19 19 19 19 19 20 18 17 17 17 17 18 18 18 19 19 19 19 18 18 18 17 16 16 15 14 13 12 11 11 10 10
19 19 20 20 20 19 20 20 19 19 19 19 19 19 19 18 20 19 16 15 16 17 17 17 17 18 18 18 18 18 17 17 17 16 16 16 15 13 12 11 11 10 9
17 18 19 19 19 19 19 19 19 19 18 17 18 16 15 14 15 17 15 14 15 16 16 17 17 18 18 18 18 17 17 16 16 16 16 15 14 13 9 8 8 8 7
Height
1585 1586 1587 1589 1588 1590 1590 1590 1590 1589 1587 1574 1581 1582 1582 1582 1582 1579 1573 1579 1581 1581 1581 1580 1580 1579 1577 1576 1575 1574 1574 1574 1574 1575 1576 1576 1577 1578 1579 1579 1580 1581 1582
1585 1587 1588 1589 1590 1590 1590 1591 1590 1589 1587 1586 1585 1586 1585 1584 1582 1581 1579 1580 1581 1581 1580 1580 1580 1579 1578 1577 1576 1575 1574 1574 1573 1573 1574 1574 1575 1577 1578 1579 1579 1580 1580
1584 1587 1588 1589 1590 1591 1591 1591 1590 1589 1587 1586 1585 1585 1584 1584 1582 1583 1583 1582 1580 1581 1581 1581 1580 1579 1578 1577 1576 1575 1575 1574 1573 1573 1574 1574 1575 1576 1577 1578 1579 1580 1580
1584 1585 1588 1589 1589 1591 1591 1591 1590 1589 1588 1586 1585 1585 1584 1583 1581 1582 1580 1582 1582 1582 1580 1582 1581 1581 1579 1578 1577 1576 1576 1575 1575 1575 1575 1575 1575 1576 1578 1579 1580 1580 1581
1584 1585 1587 1588 1589 1590 1590 1589 1587 1589 1586 1585 1583 1582 1581 1581 1581 1579 1581 1580 1580 1580 1581 1581 1581 1580 1579 1578 1577 1576 1576 1576 1576 1576 1575 1575 1575 1576 1577 1579 1580 1580 1581
1584 1584 1587 1587 1589 1589 1587 1589 1589 1588 1586 1582 1580 1580 1581 1581 1581 1581 1580 1578 1578 1579 1580 1581 1580 1578 1577 1575 1575 1575 1576 1576 1576 1575 1575 1575 1576 1576 1577 1578 1579 1580 1580
1583 1583 1586 1586 1587 1586 1584 1587 1589 1587 1586 1580 1583 1578 1579 1581 1579 1579 1579 1578 1577 1577 1578 1578 1572 1573 1573 1572 1573 1573 1574 1575 1576 1576 1576 1575 1576 1576 1577 1577 1578 1578 1578
1581 1583 1583 1585 1585 1586 1586 1587 1587 1585 1585 1582 1582 1580 1576 1581 1579 1577 1579 1576 1574 1570 1570 1570 1575 1571 1573 1577 1580 1579 1574 1573 1575 1576 1576 1576 1576 1575 1576 1576 1577 1577 1577
1579 1580 1582 1583 1583 1584 1583 1584 1585 1586 1586 1584 1583 1583 1582 1580 1579 1577 1577 1576 1573 1570 1571 1572 1569 1568 1574 1577 1576 1580 1576 1572 1573 1575 1575 1575 1575 1575 1575 1575 1575 1576 1576
1577 1579 1580 1581 1582 1584 1582 1583 1584 1585 1586 1585 1584 1583 1582 1582 1581 1578 1578 1577 1575 1574 1573 1572 1569 1563 1570 1573 1568 1573 1575 1571 1572 1574 1575 1575 1575 1574 1574 1574 1574 1574 1574
1575 1577 1578 1579 1581 1582 1583 1583 1583 1584 1584 1586 1584 1584 1583 1583 1581 1581 1578 1575 1574 1574 1573 1572 1570 1567 1567 1570 1554 1570 1570 1569 1571 1572 1573 1574 1574 1573 1573 1572 1572 1572 1572
1572 1574 1576 1577 1578 1580 1581 1583 1582 1583 1583 1583 1582 1582 1583 1582 1580 1579 1577 1576 1575 1574 1573 1572 1570 1570 1569 1568 1568 1567 1568 1569 1570 1571 1571 1572 1573 1572 1572 1571 1570 1570 1571
1569 1569 1572 1574 1576 1577 1579 1581 1581 1582 1582 1582 1582 1582 1581 1580 1579 1578 1577 1576 1574 1573 1572 1571 1569 1568 1568 1568 1568 1568 1568 1568 1568 1569 1570 1571 1571 1571 1571 1570 1569 1569 1569
1565 1566 1567 1571 1573 1575 1577 1578 1579 1579 1579 1577 1578 1579 1579 1578 1577 1576 1575 1574 1572 1571 1569 1569 1569 1568 1568 1566 1567 1568 1568 1568 1567 1567 1568 1568 1569 1569 1569 1568 1568 1567 1568
1563 1565 1566 1567 1570 1571 1572 1574 1575 1575 1576 1576 1576 1576 1576 1576 1574 1574 1573 1572 1572 1569 1567 1566 1567 1566 1566 1566 1566 1566 1565 1566 1566 1565 1566 1566 1567 1568 1568 1567 1567 1567 1566
1558 1560 1562 1565 1567 1568 1569 1569 1570 1571 1570 1572 1572 1572 1571 1572 1571 1570 1569 1569 1569 1568 1567 1565 1565 1565 1564 1564 1564 1565 1563 1563 1563 1563 1563 1563 1564 1565 1565 1565 1565 1566 1566
1554 1555 1557 1560 1563 1564 1564 1564 1564 1566 1566 1565 1566 1566 1566 1566 1567 1568 1567 1566 1566 1567 1565 1565 1565 1564 1562 1561 1563 1562 1561 1560 1559 1560 1559 1559 1560 1561 1562 1562 1563 1563 1563
1548 1551 1553 1555 1557 1559 1560 1559 1560 1561 1561 1561 1561 1560 1560 1562 1561 1561 1562 1562 1562 1562 1560 1561 1561 1561 1560 1559 1558 1559 1559 1557 1556 1557 1556 1557 1557 1557 1558 1559 1560 1561 1561
1544 1547 1548 1549 1551 1553 1554 1554 1554 1555 1555 1556 1556 1555 1555 1555 1555 1556 1555 1556 1556 1556 1555 1556 1555 1556 1555 1553 1552 1554 1554 1553 1552 1552 1553 1553 1554 1555 1555 1556 1557 1558 1558
1540 1542 1544 1546 1547 1548 1549 1549 1549 1548 1548 1549 1548 1548 1548 1549 1549 1548 1549 1549 1549 1549 1550 1550 1550 1549 1550 1550 1546 1547 1548 1548 1548 1548 1548 1548 1549 1550 1552 1553 1554 1555 1556
1536 1538 1540 1541 1543 1544 1544 1543 1543 1543 1542 1542 1543 1542 1542 1541 1542 1542 1542 1542 1542 1542 1543 1543 1543 1542 1542 1542 1540 1541 1541 1542 1543 1544 1543 1543 1544 1545 1546 1549 1550 1551 1552
1530 1533 1535 1536 1536 1535 1534 1537 1538 1538 1537 1537 1536 1536 1535 1535 1534 1533 1533 1533 1534 1533 1533 1534 1535 1535 1534 1535 1535 1535 1536 1536 1537 1538 1538 1539 1540 1541 1541 1543 1544 1547 1549
1526 1526 1529 1530 1531 1529 1530 1531 1531 1531 1530 1528 1527 1527 1526 1527 1527 1526 1524 1523 1523 1525 1524 1527 1525 1525 1526 1529 1530 1528 1527 1529 1531 1531 1533 1534 1535 1536 1536 1538 1539 1542 1544
1522 1524 1523 1524 1525 1524 1525 1525 1525 1524 1522 1520 1518 1517 1515 1514 1514 1514 1515 1514 1514 1513 1514 1515 1515 1516 1518 1522 1523 1522 1522 1523 1525 1525 1527 1529 1530 1530 1532 1533 1534 1537 1540
1515 1519 1519 1519 1520 1520 1519 1519 1517 1515 1513 1511 1509 1506 1505 1503 1503 1503 1501 1501 1503 1504 1507 1506 1506 1508 1508 1511 1515 1516 1516 1516 1514 1515 1518 1520 1522 1524 1526 1527 1528 1533 1536
1512 1513 1514 1515 1515 1515 1513 1512 1511 1509 1505 1501 1499 1496 1495 1494 1492 1492 1490 1490 1487 1490 1496 1499 1500 1499 1501 1503 1504 1507 1509 1509 1507 1511 1512 1515 1515 1518 1520 1518 1523 1525 1532
Wind_Speed
8 9 8 7 4 4 1 1 1 1 4 9 7 6 8 3 5 4 1 8 7 6 4 4 4 3 2 2 4 6 6 6 5 2 1 3 4 4 6 7 6 5 4
10 8 8 7 5 3 3 1 2 2 4 6 5 4 2 4 3 5 8 9 10 6 6 4 3 2 1 1 1 2 4 4 4 3 0 1 1 2 4 5 5 4 3
11 8 8 7 5 4 2 2 3 3 5 6 3 1 3 2 1 5 6 7 9 9 8 7 5 4 2 1 2 3 4 4 4 2 1 1 1 2 4 5 5 3 3
8 12 8 7 7 4 2 3 3 6 6 6 2 3 3 5 4 6 5 6 6 6 9 6 7 8 3 1 1 3 3 4 3 1 1 2 2 4 4 4 4 3 4
8 10 10 8 6 4 3 6 2 3 6 6 6 6 4 3 7 5 7 7 5 3 3 7 7 7 5 2 1 1 1 3 3 3 2 3 4 4 3 4 5 6 6
9 9 9 6 7 5 6 4 6 3 6 8 7 4 5 4 2 3 5 5 2 2 1 2 4 4 4 2 1 1 1 1 2 3 2 2 2 3 4 4 5 5 6
10 12 8 8 7 7 2 2 5 6 6 6 7 8 1 1 3 2 3 4 4 0 1 2 9 6 9 3 3 2 2 1 1 0 1 1 2 3 4 5 5 6 6
11 10 10 7 9 6 9 5 6 5 6 1 9 10 9 6 4 2 2 0 4 2 3 6 5 8 5 1 1 2 2 1 1 2 2 2 2 2 3 4 6 7 7
11 13 11 12 6 12 10 6 3 6 5 5 7 5 7 6 9 2 1 1 5 8 10 3 7 11 4 4 2 5 3 1 1 3 4 4 4 4 4 5 6 6 7
11 12 12 12 10 8 9 2 6 9 4 7 4 3 8 7 8 8 6 6 4 5 6 5 5 11 4 8 7 5 4 2 3 3 5 5 5 5 5 6 6 7 7
12 12 14 13 13 12 9 10 7 6 7 6 9 7 8 8 10 6 12 9 7 4 3 5 7 8 3 4 5 4 4 2 2 3 4 5 5 5 5 6 6 7 7
12 15 13 14 13 13 13 11 11 10 11 13 9 7 9 9 10 11 12 12 11 11 6 6 7 1 4 6 7 8 7 3 3 4 5 5 4 4 5 6 6 6 6
16 17 13 15 12 12 12 11 12 12 11 10 10 11 11 11 11 12 12 13 14 12 11 9 8 4 5 4 8 6 4 3 4 6 6 6 5 5 6 5 5 5 5
13 12 12 12 15 14 13 12 11 12 11 16 10 10 11 11 11 12 12 12 13 13 11 12 10 7 5 8 6 10 8 5 5 5 7 8 7 7 7 7 6 5 5
16 14 12 12 13 14 14 14 14 15 14 12 12 13 13 12 12 12 13 12 11 14 12 8 8 10 7 7 12 5 11 9 6 5 6 9 9 9 9 8 7 7 6
22 18 15 16 16 16 17 19 16 15 15 15 15 16 17 14 15 14 15 13 14 15 15 14 10 2 7 6 8 8 13 12 11 8 9 11 10 10 9 8 8 8 7
22 23 23 16 17 17 18 21 19 18 16 16 16 17 18 20 18 16 17 18 17 16 17 17 14 10 16 16 12 11 12 14 11 12 11 12 12 11 10 9 8 8 8
24 26 24 22 21 19 20 20 18 17 18 18 18 20 20 18 22 21 17 20 19 19 18 18 19 17 14 17 15 16 14 12 15 11 12 14 14 13 11 10 10 10 9
23 20 21 24 24 22 23 23 24 22 21 21 22 23 24 23 23 21 22 21 22 23 22 21 20 18 17 19 21 20 16 18 20 15 14 16 17 16 14 12 12 11 10
23 22 22 21 20 20 21 22 22 25 25 22 24 25 26 27 27 27 27 26 27 24 20 21 22 19 20 21 22 21 22 22 21 17 16 18 20 19 17 16 15 14 12
23 22 21 21 21 21 20 24 25 25 24 25 23 24 25 28 29 28 29 27 27 27 25 26 28 25 23 24 22 20 20 21 20 18 18 18 18 23 21 20 19 18 14
21 20 20 21 22 24 27 25 24 24 21 21 25 25 25 26 28 31 33 36 36 32 34 31 28 28 27 21 19 22 23 25 22 23 21 19 17 20 24 24 22 19 16
20 21 20 20 21 20 20 22 22 27 31 30 30 30 28 26 28 29 31 33 33 35 39 39 38 36 28 22 24 24 27 28 27 24 20 23 22 20 21 23 24 21 18
20 19 22 21 21 25 25 25 25 28 31 34 35 35 36 36 35 35 32 30 30 33 32 36 46 45 43 38 30 28 31 29 21 22 19 24 26 27 28 28 27 22 21
22 22 22 22 23 21 25 26 27 30 32 34 34 35 35 35 35 36 34 35 40 39 32 31 34 32 37 42 33 29 27 24 27 27 25 27 28 31 34 32 29 26 25
18 14 16 17 19 19 25 28 30 31 33 32 33 33 31 33 36 35 34 40 44 40 40 37 36 34 34 29 29 28 28 26 30 28 29 32 29 32 21 20 25 30 29
Wind_Direction
174 167 170 161 194 161 168 120 292 317 265 251 343 9 346 24 8 318 210 360 357 8 329 317 325 334 310 318 330 342 357 1 358 337 178 191 212 210 208 203 204 217 244
178 177 173 164 166 181 175 196 266 296 272 349 11 324 316 346 0 336 353 319 338 345 7 352 325 336 40 48 1 350 0 4 12 5 56 183 213 203 195 191 198 210 234
181 180 173 178 181 211 222 252 294 278 305 320 359 56 265 277 20 322 319 324 313 320 343 13 9 1 1 105 118 74 43 26 11 24 42 230 181 174 185 196 205 220 251
175 159 184 189 188 201 222 242 288 275 277 289 294 306 320 293 269 280 324 315 301 300 333 356 6 24 355 339 114 115 91 67 61 38 183 154 165 176 179 198 219 246 261
189 174 193 207 219 221 244 253 117 266 302 284 275 261 254 311 299 2 329 321 301 279 17 331 1 354 6 356 70 50 62 72 68 65 156 160 154 160 191 214 228 235 247
190 167 209 215 194 221 211 206 224 331 266 296 284 283 267 321 279 305 341 339 345 333 110 218 304 44 341 244 114 207 162 88 63 45 68 168 182 187 197 216 235 252 263
193 190 204 224 224 249 305 97 246 241 280 328 314 243 203 240 195 149 8 27 41 60 198 202 218 278 7 114 126 170 176 175 189 227 43 128 203 225 231 238 242 247 254
194 199 199 208 209 234 260 216 245 275 294 289 319 339 353 331 273 246 28 2 299 271 205 170 204 257 284 359 62 266 164 172 248 259 254 260 249 249 249 251 256 263 266
209 201 222 203 210 215 226 204 217 263 290 304 328 311 311 17 332 26 20 195 320 354 3 313 196 237 264 182 302 242 17 60 218 260 266 276 284 276 270 269 268 268 271
208 222 221 219 223 213 274 274 240 253 285 294 291 290 307 299 323 315 312 277 310 339 359 357 269 230 174 159 235 185 316 6 228 238 253 260 272 277 276 278 277 273 275
213 221 223 219 225 227 245 242 240 261 265 282 284 278 295 289 275 281 294 294 317 325 308 289 9 343 20 277 20 12 345 338 249 234 243 263 276 269 270 270 267 269 272
226 217 218 222 229 230 234 246 262 261 255 249 254 276 277 277 274 270 276 284 287 291 289 301 246 234 299 261 260 284 312 304 272 254 248 262 277 282 291 285 278 274 269
218 229 231 224 231 240 230 244 251 251 253 262 264 267 269 268 267 271 278 283 286 284 280 272 275 231 300 217 267 309 276 255 312 276 265 260 279 294 296 288 267 260 256
229 227 233 226 231 227 243 241 244 248 256 245 247 264 260 272 264 264 266 278 290 288 276 246 265 251 227 230 261 283 286 258 289 283 271 251 265 277 290 289 270 253 251
226 235 224 228 236 243 236 240 238 243 250 272 261 258 262 261 268 264 265 269 270 286 282 245 251 236 220 275 271 279 261 279 269 267 255 236 247 257 267 269 258 253 253
226 217 227 236 237 236 237 243 239 263 270 246 255 257 254 260 264 271 255 260 270 280 283 278 285 12 214 207 273 244 254 264 258 261 257 239 240 250 251 254 243 246 247
224 234 222 224 231 236 242 249 248 239 249 260 257 254 259 256 255 259 268 264 258 259 261 270 262 284 264 259 250 251 255 259 253 249 258 245 244 250 247 249 243 245 243
226 228 237 233 234 230 241 249 252 248 257 261 262 266 258 259 263 260 256 257 258 256 259 263 264 260 266 269 262 249 251 228 264 256 252 245 245 243 246 244 244 243 240
229 228 237 238 239 240 245 247 249 252 255 259 259 258 262 265 263 254 253 250 254 254 250 253 254 259 256 245 264 260 243 229 244 265 258 247 241 238 241 239 240 241 240
231 232 231 239 244 243 244 250 254 259 250 252 257 261 260 257 258 262 260 253 245 247 252 254 258 261 255 253 249 261 259 253 251 251 253 247 238 235 235 235 236 235 234
230 231 234 235 240 244 249 252 250 256 262 262 260 269 272 272 263 260 263 259 250 249 247 250 253 251 248 240 234 244 257 255 251 248 250 251 244 239 235 235 235 232 230
225 229 234 239 241 240 245 249 251 251 261 257 261 266 269 268 264 265 265 260 254 252 248 239 249 251 248 251 237 242 246 244 240 243 244 250 247 237 236 232 231 228 221
227 235 236 241 249 248 259 256 260 257 261 266 267 267 264 266 265 267 269 270 263 256 253 251 247 244 244 245 244 250 247 253 256 256 241 238 228 228 229 222 227 213 207
232 232 236 243 248 257 264 267 267 269 272 276 278 278 276 275 271 263 254 256 258 264 264 255 248 252 252 250 245 250 255 259 253 235 247 226 224 215 217 225 223 208 192
222 229 237 242 250 255 267 273 278 281 281 279 279 279 277 274 272 268 263 264 254 252 251 256 260 256 255 251 249 247 248 240 229 230 230 235 227 221 220 225 223 203 184
219 229 238 246 257 270 279 281 282 280 279 278 276 277 278 280 281 276 269 260 258 250 249 252 253 254 254 256 249 242 248 254 248 239 233 225 223 217 202 216 210 192 184